contact:dominique.lefevre@mio.osupytheas.fr, maurice.libes@osupytheas.fr
Project:EMSO Ligure-ouest http://www.emso-fr.org/EMSO-France
Sensor Aquadopp, line 13 Serial AQD14315 
DOI : "https://doi.org/10.17882/74513; https://doi.org/10.17882/83244" 
Title:EMSO Ligure Ouest : Data ligne ALBATROSS capteur AQUADOPP - deploiement 2021
Id,Date,Profondeur,Latitude,Longitude,X_East,Y_North,Z_Up,Amplitude_X,Amplitude_Y,Amplitude_Z,Batterie,SoundSpeed,Heading,Pitch,Roll,Pressure,Temperature,Speed,Direction
, , m, degrees North, degrees East, m.s-1, m.s-1,m.s-1, 1, 1, 1, Volt, m.s-1, degree, degree, degree, dbar, degree_C, m.s-1, degree
07,2022-07-26T23:30:00,1500.0,42.79,6.0312,-0.007,-0.009,-0.004,45.0,49.0,48.0,13.1,1504.1,357.5,0.1,0.8,1475.168,13.12,0.011,217.9
07,2022-07-27T00:00:00,1500.0,42.79,6.0312,0.005,0.004,0.004,49.0,47.0,48.0,13.2,1504.1,3.3,-0.2,0.8,1475.124,13.12,0.006,51.3
07,2022-07-27T00:30:00,1500.0,42.79,6.0312,0.001,-0.003,0.01,46.0,53.0,50.0,13.2,1504.1,5.2,-0.1,0.8,1475.134,13.13,0.003,161.6
07,2022-07-27T01:00:00,1500.0,42.79,6.0312,0.011,-0.013,0.001,48.0,57.0,50.0,13.2,1504.1,9.9,0.1,0.9,1475.132,13.13,0.017,139.8
07,2022-07-27T01:30:00,1500.0,42.79,6.0312,0.018,-0.014,-0.001,47.0,48.0,49.0,13.1,1504.1,14.4,-0.1,1.1,1475.106,13.13,0.022,127.9
07,2022-07-27T02:00:00,1500.0,42.79,6.0312,0.015,0.0,-0.005,47.0,49.0,50.0,13.2,1504.1,12.2,0.2,1.0,1475.117,13.13,0.015,90.0
07,2022-07-27T02:30:00,1500.0,42.79,6.0312,0.003,-0.013,0.019,48.0,49.0,49.0,13.2,1504.1,10.2,0.1,0.7,1475.119,13.13,0.013,167.0
07,2022-07-27T03:00:00,1500.0,42.79,6.0312,0.003,-0.015,0.008,48.0,49.0,47.0,13.2,1504.1,2.5,0.2,0.7,1475.114,13.13,0.015,168.7
07,2022-07-27T03:30:00,1500.0,42.79,6.0312,0.005,-0.009,0.004,45.0,48.0,47.0,13.2,1504.1,358.8,-0.1,0.7,1475.123,13.13,0.01,150.9
07,2022-07-27T04:00:00,1500.0,42.79,6.0312,0.007,-0.013,0.011,48.0,49.0,47.0,13.1,1504.1,2.2,0.1,0.8,1475.135,13.12,0.014,151.7
07,2022-07-27T04:30:00,1500.0,42.79,6.0312,0.008,-0.003,-0.004,50.0,51.0,48.0,13.2,1504.1,357.6,0.1,0.9,1475.148,13.12,0.008,110.6
07,2022-07-27T05:00:00,1500.0,42.79,6.0312,0.007,-0.008,-0.007,49.0,49.0,48.0,13.1,1504.1,0.0,0.0,1.0,1475.199,13.12,0.01,138.8
07,2022-07-27T05:30:00,1500.0,42.79,6.0312,0.008,-0.012,0.001,46.0,49.0,52.0,13.2,1504.1,358.9,0.1,1.0,1475.176,13.13,0.014,146.3
07,2022-07-27T06:00:00,1500.0,42.79,6.0312,-0.001,-0.016,-0.002,45.0,46.0,48.0,13.2,1504.1,359.8,-0.1,0.8,1475.214,13.13,0.016,183.6
07,2022-07-27T06:30:00,1500.0,42.79,6.0312,0.007,-0.015,-0.007,51.0,49.0,49.0,13.1,1504.1,358.5,0.2,0.7,1475.206,13.13,0.016,155.0
07,2022-07-27T07:00:00,1500.0,42.79,6.0312,-0.01,-0.01,0.006,49.0,49.0,47.0,13.2,1504.1,353.8,0.1,0.7,1475.171,13.13,0.014,225.0
07,2022-07-27T07:30:00,1500.0,42.79,6.0312,-0.007,-0.007,0.003,48.0,48.0,48.0,13.2,1504.1,347.7,0.2,0.7,1475.193,13.13,0.009,225.0
07,2022-07-27T08:00:00,1500.0,42.79,6.0312,-0.007,-0.013,0.009,47.0,50.0,48.0,13.2,1504.1,349.6,0.2,0.7,1475.182,13.13,0.014,208.3
07,2022-07-27T08:30:00,1500.0,42.79,6.0312,-0.013,-0.014,0.003,47.0,48.0,48.0,13.2,1504.1,347.2,-0.2,1.0,1475.157,13.13,0.019,222.9
07,2022-07-27T09:00:00,1500.0,42.79,6.0312,0.004,-0.009,0.013,47.0,49.0,47.0,13.2,1504.1,343.1,-0.1,0.9,1475.17,13.12,0.009,156.0
07,2022-07-27T09:30:00,1500.0,42.79,6.0312,0.001,-0.012,0.01,49.0,48.0,48.0,13.2,1504.1,339.5,0.0,0.7,1475.144,13.12,0.012,175.2
07,2022-07-27T10:00:00,1500.0,42.79,6.0312,-0.013,-0.012,-0.005,48.0,48.0,45.0,13.2,1504.1,341.0,0.0,0.9,1475.111,13.12,0.017,227.3
07,2022-07-27T10:30:00,1500.0,42.79,6.0312,-0.002,-0.008,0.005,49.0,48.0,46.0,13.2,1504.1,338.9,0.2,1.0,1475.12,13.12,0.008,194.0
07,2022-07-27T11:00:00,1500.0,42.79,6.0312,-0.005,-0.014,0.005,47.0,47.0,50.0,13.2,1504.1,338.6,0.0,1.0,1475.06,13.12,0.014,199.6
07,2022-07-27T11:30:00,1500.0,42.79,6.0312,-0.007,-0.008,0.006,46.0,49.0,48.0,13.2,1504.1,336.5,0.1,1.0,1475.062,13.13,0.01,221.2
07,2022-07-27T12:00:00,1500.0,42.79,6.0312,-0.001,-0.008,0.004,52.0,49.0,50.0,13.2,1504.1,338.4,0.2,1.0,1475.058,13.13,0.008,187.1
07,2022-07-27T12:30:00,1500.0,42.79,6.0312,-0.007,-0.009,-0.01,47.0,47.0,46.0,13.2,1504.1,340.9,0.2,0.8,1475.062,13.12,0.011,217.9
07,2022-07-27T13:00:00,1500.0,42.79,6.0312,-0.007,-0.019,-0.006,48.0,47.0,49.0,13.2,1504.1,341.2,-0.1,0.7,1475.061,13.12,0.02,200.2
07,2022-07-27T13:30:00,1500.0,42.79,6.0312,-0.005,-0.006,-0.005,48.0,50.0,47.0,13.1,1504.1,336.6,-0.2,1.0,1475.078,13.12,0.007,219.8
07,2022-07-27T14:00:00,1500.0,42.79,6.0312,-0.009,-0.005,-0.008,46.0,48.0,52.0,13.1,1504.1,334.7,0.2,0.7,1475.06,13.12,0.01,240.9
07,2022-07-27T14:30:00,1500.0,42.79,6.0312,-0.016,-0.006,-0.011,50.0,47.0,46.0,13.2,1504.1,337.9,0.1,0.7,1475.114,13.12,0.017,249.4
07,2022-07-27T15:00:00,1500.0,42.79,6.0312,-0.015,0.002,0.0,48.0,52.0,49.0,13.1,1504.1,340.8,-0.1,0.6,1475.134,13.13,0.015,277.6
07,2022-07-27T15:30:00,1500.0,42.79,6.0312,-0.009,-0.016,-0.003,47.0,51.0,52.0,13.2,1504.1,345.0,0.1,1.0,1475.107,13.13,0.018,209.4
07,2022-07-27T16:00:00,1500.0,42.79,6.0312,-0.015,-0.009,0.003,48.0,48.0,48.0,13.2,1504.1,347.0,0.2,0.7,1475.149,13.13,0.017,239.0
07,2022-07-27T16:30:00,1500.0,42.79,6.0312,-0.01,-0.011,0.0,47.0,48.0,51.0,13.2,1504.1,350.4,-0.1,0.6,1475.162,13.13,0.014,222.3
07,2022-07-27T17:00:00,1500.0,42.79,6.0312,-0.015,-0.005,0.005,49.0,49.0,49.0,13.2,1504.1,355.9,0.1,1.0,1475.181,13.13,0.015,251.6
07,2022-07-27T17:30:00,1500.0,42.79,6.0312,-0.013,-0.003,-0.007,51.0,50.0,48.0,13.2,1504.1,0.7,-0.1,0.9,1475.218,13.13,0.013,257.0
07,2022-07-27T18:00:00,1500.0,42.79,6.0312,-0.012,0.0,-0.005,50.0,48.0,49.0,13.2,1504.1,4.9,0.0,0.9,1475.24,13.13,0.012,270.0
07,2022-07-27T18:30:00,1500.0,42.79,6.0312,-0.013,-0.011,0.012,46.0,49.0,45.0,13.2,1504.1,5.7,0.1,0.8,1475.275,13.13,0.017,229.8
07,2022-07-27T19:00:00,1500.0,42.79,6.0312,-0.011,-0.016,0.001,48.0,48.0,48.0,13.2,1504.1,7.9,0.2,0.7,1475.265,13.13,0.019,214.5
07,2022-07-27T19:30:00,1500.0,42.79,6.0312,-0.022,-0.017,0.005,47.0,52.0,47.0,13.2,1504.1,10.8,0.2,1.0,1475.253,13.13,0.027,232.3
07,2022-07-27T20:00:00,1500.0,42.79,6.0312,-0.009,-0.003,0.011,47.0,48.0,53.0,13.2,1504.1,7.7,-0.1,0.7,1475.275,13.13,0.009,251.6
07,2022-07-27T20:30:00,1500.0,42.79,6.0312,-0.013,-0.014,0.01,51.0,51.0,49.0,13.2,1504.1,3.9,-0.1,1.0,1475.284,13.13,0.019,222.9
07,2022-07-27T21:00:00,1500.0,42.79,6.0312,-0.002,-0.028,-0.002,49.0,51.0,49.0,13.2,1504.1,358.5,0.1,0.7,1475.253,13.13,0.028,184.1
07,2022-07-27T21:30:00,1500.0,42.79,6.0312,-0.01,-0.006,0.023,46.0,50.0,47.0,13.2,1504.1,350.7,0.1,0.7,1475.282,13.13,0.011,239.0
07,2022-07-27T22:00:00,1500.0,42.79,6.0312,-0.001,-0.013,0.004,49.0,50.0,50.0,13.2,1504.1,348.3,-0.1,0.6,1475.212,13.13,0.013,184.4
07,2022-07-27T22:30:00,1500.0,42.79,6.0312,-0.011,-0.006,0.0,48.0,48.0,51.0,13.1,1504.1,347.3,0.0,1.0,1475.199,13.13,0.012,241.4
07,2022-07-27T23:00:00,1500.0,42.79,6.0312,-0.009,-0.019,0.006,48.0,49.0,49.0,13.2,1504.1,350.9,0.0,0.9,1475.198,13.13,0.021,205.3
